"startDT [UTC]","vpos","CH4 [ppm]","stdev(CH4) [ppm]","CO2 [ppm]","stdev(CO2) [ppm]","H2O [ppm]","stdev(H2O)","p_LGR [torr]","T_LGR [C]","mt1_LGR [us]","mt2_LGR [us]","T_ECpre [C]","T_EC1 [C]","T_EC2 [C]","p_inlet [hPa]","p_in [hPa]","p_out [hPa]","T_inlet [C]","RH_inlet [%]","dwpt_inlet [C]","T_vent [C]","RH_vent [%]","dwpt_vent [C]","flow_vent [l min-1]","flow_inlet [l min-1]","dwpt_sample [C]","T_room [C]"
2013-06-10 00:00:00,0.0,1.8886,0.0009,404.68,0.31,341.9,33.1,138.09,29.01,24.66,36.41,0.04,-272.76,-272.76,-39,561,-919,21.9,14.0,-6.8,22.3,14.1,-6.4,5.73,2.36,-22.4,28.4
2013-06-10 00:01:00,0.0,1.8888,0.0009,404.58,0.32,343.6,29.4,138.09,29.01,24.66,36.41,0.04,-272.76,-272.76,-40,561,-920,21.9,14.1,-6.7,22.3,14.2,-6.3,5.73,2.38,-22.4,28.3
2013-06-10 00:02:00,0.0,1.8888,0.0008,404.72,0.32,334.5,28.3,138.09,29.01,24.66,36.40,0.04,-272.76,-272.76,-40,561,-920,21.9,14.3,-6.5,22.3,14.4,-6.1,5.73,2.30,-22.4,28.3
2013-06-10 00:03:00,0.0,1.8886,0.0008,404.66,0.32,343.8,30.1,138.09,29.02,24.66,36.41,0.04,-272.76,-272.76,-39,561,-920,21.9,14.8,-6.0,22.3,15.0,-5.6,5.73,2.42,-22.4,28.3
2013-06-10 00:04:00,0.0,1.8888,0.0009,404.61,0.28,343.5,25.8,138.09,29.02,24.66,36.41,0.04,-272.76,-272.76,-40,561,-920,21.9,14.4,-6.5,22.3,14.5,-6.0,5.73,2.29,-22.4,28.3
2013-06-10 00:05:00,0.0,1.8890,0.0009,404.71,0.29,347.8,34.8,138.09,29.02,24.66,36.41,0.04,-272.76,-272.76,-40,561,-920,21.9,14.4,-6.4,22.3,14.5,-6.0,5.73,2.39,-22.4,28.3
2013-06-10 00:06:00,0.0,1.8889,0.0010,404.79,0.31,337.7,34.2,138.09,29.02,24.66,36.41,0.04,-272.76,-272.76,-39,561,-920,21.9,14.7,-6.2,22.3,14.8,-5.7,5.73,2.35,-22.4,28.4
2013-06-10 00:07:00,0.0,1.8889,0.0009,404.74,0.26,344.3,30.1,138.09,29.03,24.66,36.41,0.04,-272.76,-272.76,-40,561,-920,21.9,14.9,-6.0,22.3,15.0,-5.5,5.73,2.31,-22.4,28.3
2013-06-10 00:08:00,0.0,1.8890,0.0009,404.80,0.34,343.6,33.1,138.09,29.03,24.66,36.41,0.04,-272.76,-272.76,-40,561,-920,21.9,15.4,-5.6,22.3,15.5,-5.1,5.73,2.41,-22.4,28.3
2013-06-10 00:09:00,0.0,1.8888,0.0009,404.78,0.33,350.7,28.1,138.09,29.03,24.65,36.41,0.04,-272.76,-272.76,-39,561,-920,21.9,15.2,-5.7,22.3,15.4,-5.2,5.73,2.28,-22.4,28.3
2013-06-10 00:10:00,0.0,1.8886,0.0010,404.75,0.34,339.6,29.9,138.09,29.03,24.66,36.41,0.04,-272.76,-272.76,-40,561,-920,22.0,15.1,-5.8,22.4,15.3,-5.3,5.73,2.40,-22.4,28.4
2013-06-10 00:11:00,0.0,1.8888,0.0011,404.73,0.26,346.8,32.5,138.09,29.03,24.66,36.41,0.04,-272.76,-272.76,-39,561,-920,22.0,14.9,-5.9,22.4,15.1,-5.5,5.73,2.34,-22.4,28.4
2013-06-10 00:12:00,0.0,1.8890,0.0008,404.78,0.27,344.2,26.7,138.09,29.04,24.66,36.41,0.04,-272.76,-272.76,-39,562,-920,22.0,15.0,-5.8,22.4,15.2,-5.4,5.73,2.32,-22.4,28.4
2013-06-10 00:13:00,0.0,1.8889,0.0010,404.69,0.33,355.7,30.5,138.09,29.04,24.66,36.41,0.04,-272.76,-272.76,-40,561,-920,22.0,14.7,-6.1,22.4,14.9,-5.7,5.73,2.41,-22.4,28.4
2013-06-10 00:14:00,0.0,1.8887,0.0009,404.71,0.31,348.5,28.8,138.09,29.04,24.66,36.41,0.04,-272.77,-272.76,-39,561,-920,22.0,14.8,-6.1,22.4,14.9,-5.6,5.73,2.28,-22.4,28.4
2013-06-10 00:15:00,0.0,1.8887,0.0009,404.73,0.28,349.6,34.4,138.09,29.04,24.66,36.41,0.04,-272.76,-272.76,-40,562,-920,22.0,14.8,-6.0,22.4,14.9,-5.6,5.73,2.41,-22.3,28.3
2013-06-10 00:16:00,0.0,1.8887,0.0010,404.83,0.24,348.3,28.6,138.09,29.04,24.66,36.41,0.04,-272.76,-272.76,-40,561,-920,22.0,14.2,-6.5,22.4,14.4,-6.1,5.73,2.31,-22.4,28.3
2013-06-10 00:17:00,0.0,1.8887,0.0009,404.75,0.28,352.3,24.5,138.09,29.05,24.66,36.41,0.04,-272.76,-272.76,-39,562,-920,22.0,14.8,-6.0,22.4,15.0,-5.6,5.73,2.36,-22.3,28.4
2013-06-10 00:18:00,0.0,1.8887,0.0007,404.81,0.28,349.6,28.6,138.09,29.05,24.66,36.41,0.04,-272.76,-272.76,-40,561,-920,22.0,14.5,-6.3,22.4,14.7,-5.8,5.73,2.37,-22.4,28.4
2013-06-10 00:19:00,0.0,1.8886,0.0010,404.81,0.29,343.3,25.9,138.09,29.05,24.66,36.41,0.04,-272.76,-272.76,-40,561,-920,22.0,14.4,-6.4,22.4,14.5,-5.9,5.73,2.30,-22.4,28.4
2013-06-10 00:20:00,0.0,1.8886,0.0009,404.78,0.31,344.4,28.4,138.09,29.05,24.66,36.41,0.04,-272.76,-272.76,-39,561,-920,22.0,14.6,-6.2,22.4,14.8,-5.7,5.73,2.42,-22.4,28.4
2013-06-10 00:21:00,0.0,1.8886,0.0007,404.63,0.29,339.8,32.5,138.09,29.06,24.66,36.41,0.04,-272.76,-272.76,-40,561,-920,22.0,14.3,-6.4,22.4,14.4,-6.0,5.73,2.28,-22.3,28.4
2013-06-10 00:22:00,0.0,1.8885,0.0009,404.73,0.29,344.0,29.6,138.09,29.06,24.66,36.41,0.04,-272.76,-272.76,-40,562,-920,22.0,14.1,-6.6,22.4,14.2,-6.2,5.73,2.41,-22.3,28.4
2013-06-10 00:23:00,0.0,1.8886,0.0009,404.73,0.29,343.1,31.4,138.09,29.06,24.66,36.42,0.04,-272.76,-272.76,-39,561,-920,22.0,13.9,-6.8,22.4,14.1,-6.3,5.73,2.33,-22.4,28.4
2013-06-10 00:24:00,0.0,1.8888,0.0007,404.71,0.31,352.6,28.6,138.09,29.06,24.65,36.41,0.04,-272.76,-272.76,-40,562,-920,22.0,14.1,-6.6,22.4,14.2,-6.2,5.73,2.33,-22.3,28.4
2013-06-10 00:25:00,0.0,1.8890,0.0009,404.66,0.34,344.8,30.1,138.09,29.06,24.65,36.41,0.04,-272.76,-272.77,-40,562,-920,22.1,14.7,-6.0,22.4,14.9,-5.6,5.73,2.40,-22.3,28.4
2013-06-10 00:26:00,0.0,1.8889,0.0009,404.66,0.27,349.0,29.6,138.09,29.07,24.66,36.41,0.04,-272.76,-272.76,-39,562,-920,22.1,14.9,-5.8,22.4,15.1,-5.4,5.73,2.28,-22.3,28.5
2013-06-10 00:27:00,0.0,1.8886,0.0009,404.77,0.29,347.5,36.0,138.09,29.07,24.66,36.40,0.04,-272.76,-272.76,-40,562,-920,22.1,14.5,-6.3,22.5,14.7,-5.8,5.73,2.42,-22.3,28.4
2013-06-10 00:28:00,0.0,1.8886,0.0009,404.70,0.30,349.2,27.7,138.09,29.07,24.66,36.41,0.04,-272.76,-272.76,-39,562,-920,22.1,14.2,-6.4,22.5,14.4,-6.0,5.73,2.30,-22.3,28.5
2013-06-10 00:29:00,0.0,1.8890,0.0007,404.79,0.25,347.6,36.4,138.09,29.07,24.66,36.41,0.04,-272.76,-272.76,-40,562,-920,22.1,14.8,-5.9,22.5,15.0,-5.5,5.73,2.38,-22.3,28.4
2013-06-10 00:30:00,0.0,1.8887,0.0009,404.72,0.29,352.3,27.6,138.09,29.08,24.66,36.41,0.04,-272.76,-272.76,-40,562,-920,22.1,14.8,-5.9,22.4,15.0,-5.5,5.73,2.36,-22.3,28.5
2013-06-10 00:31:00,0.0,1.8888,0.0009,404.86,0.30,347.5,28.3,138.09,29.08,24.66,36.40,0.04,-272.76,-272.76,-39,562,-920,22.1,14.8,-6.0,22.5,14.9,-5.5,5.73,2.31,-22.3,28.5
2013-06-10 00:32:00,0.0,1.8888,0.0009,404.79,0.26,350.4,30.3,138.09,29.08,24.66,36.41,0.04,-272.76,-272.76,-40,562,-920,22.1,14.8,-6.0,22.5,14.9,-5.5,5.73,2.42,-22.3,28.5
2013-06-10 00:33:00,0.0,1.8886,0.0009,404.77,0.31,351.5,37.2,138.09,29.09,24.66,36.41,0.04,-272.76,-272.76,-40,562,-920,22.1,14.1,-6.6,22.5,14.3,-6.1,5.73,2.28,-22.3,28.5
2013-06-10 00:34:00,0.0,1.8884,0.0008,404.71,0.31,350.7,28.6,138.09,29.09,24.66,36.42,0.04,-272.76,-272.76,-39,562,-920,22.1,13.9,-6.7,22.5,14.0,-6.3,5.73,2.40,-22.3,28.5
2013-06-10 00:35:00,0.0,1.8890,0.0009,404.84,0.28,350.8,30.7,138.09,29.09,24.66,36.40,0.04,-272.76,-272.76,-40,562,-920,22.2,14.4,-6.3,22.5,14.5,-5.9,5.73,2.34,-22.3,28.4
2013-06-10 00:36:00,0.0,1.8885,0.0009,404.80,0.29,351.1,25.3,138.09,29.10,24.66,36.41,0.04,-272.76,-272.76,-40,562,-920,22.2,14.7,-6.0,22.5,14.8,-5.6,5.73,2.32,-22.3,28.4
2013-06-10 00:37:00,0.0,1.8887,0.0008,404.84,0.33,357.9,30.6,138.09,29.10,24.65,36.40,0.04,-272.76,-272.76,-40,562,-920,22.2,14.7,-6.0,22.5,14.8,-5.6,5.73,2.41,-22.3,28.5
2013-06-10 00:38:00,0.0,1.8884,0.0008,404.69,0.26,349.7,30.4,138.09,29.10,24.66,36.41,0.04,-272.77,-272.76,-40,562,-920,22.2,14.7,-5.9,22.5,14.9,-5.5,5.73,2.28,-22.3,28.4
2013-06-10 00:39:00,0.0,1.8886,0.0009,404.71,0.32,358.0,27.8,138.09,29.10,24.66,36.42,0.04,-272.76,-272.76,-40,562,-920,22.2,14.3,-6.4,22.5,14.4,-5.9,5.73,2.41,-22.3,28.4
2013-06-10 00:40:00,0.0,1.8885,0.0008,404.79,0.34,350.5,29.8,138.09,29.10,24.66,36.41,0.04,-272.76,-272.76,-40,562,-920,22.2,14.1,-6.5,22.5,14.3,-6.1,5.73,2.31,-22.3,28.4
2013-06-10 00:41:00,0.0,1.8892,0.0009,404.82,0.28,355.1,34.1,138.09,29.11,24.66,36.41,0.04,-272.76,-272.76,-40,562,-920,22.2,14.6,-6.0,22.5,14.7,-5.7,5.73,2.35,-22.3,28.5
2013-06-10 00:42:00,0.0,1.8888,0.0010,404.83,0.30,348.4,34.3,138.09,29.11,24.66,36.41,0.04,-272.76,-272.76,-40,562,-920,22.2,14.3,-6.3,22.5,14.4,-5.9,5.73,2.39,-22.3,28.5
2013-06-10 00:43:00,0.0,1.8887,0.0009,404.81,0.33,349.0,36.1,138.09,29.11,24.66,36.41,0.04,-272.76,-272.76,-40,562,-920,22.2,14.6,-6.0,22.6,14.7,-5.6,5.73,2.29,-22.3,28.4
2013-06-10 00:44:00,0.0,1.8886,0.0009,404.87,0.27,363.0,33.3,138.09,29.12,24.66,36.41,0.04,-272.76,-272.76,-40,562,-920,22.2,14.4,-6.2,22.6,14.6,-5.7,5.73,2.42,-22.3,28.5
2013-06-10 00:45:00,0.0,1.8886,0.0010,404.75,0.26,351.8,31.9,138.09,29.12,24.66,36.42,0.04,-272.76,-272.76,-40,562,-921,22.2,14.3,-6.2,22.6,14.5,-5.8,5.73,2.29,-22.3,28.5
2013-06-10 00:46:00,0.0,1.8888,0.0009,404.79,0.29,357.4,30.4,138.09,29.12,24.66,36.41,0.04,-272.76,-272.76,-40,562,-920,22.2,14.5,-6.1,22.6,14.6,-5.7,5.73,2.38,-22.3,28.5
2013-06-10 00:47:00,0.0,1.8886,0.0009,404.86,0.26,347.8,27.2,138.09,29.13,24.66,36.41,0.04,-272.76,-272.76,-40,562,-920,22.2,14.1,-6.4,22.6,14.3,-6.0,5.73,2.35,-22.2,28.5
2013-06-10 00:48:00,0.0,1.8885,0.0009,404.79,0.25,349.9,34.2,138.09,29.13,24.66,36.41,0.04,-272.75,-272.76,-40,563,-920,22.2,13.9,-6.6,22.6,14.1,-6.2,5.73,2.31,-22.2,28.5
2013-06-10 00:49:00,0.0,1.8882,0.0009,404.85,0.33,358.5,32.2,138.09,29.13,24.66,36.41,0.04,-272.76,-272.76,-40,562,-920,22.2,13.9,-6.6,22.6,14.1,-6.1,5.73,2.41,-22.2,28.5
2013-06-10 00:50:00,0.0,1.8882,0.0008,404.87,0.31,343.2,28.2,138.09,29.14,24.66,36.41,0.04,-272.76,-272.76,-40,562,-920,22.3,13.5,-7.0,22.6,13.7,-6.5,5.73,2.28,-22.2,28.5
2013-06-10 00:51:00,0.0,1.8886,0.0008,404.82,0.28,356.1,30.5,138.09,29.14,24.66,36.41,0.04,-272.75,-272.76,-40,563,-920,22.3,13.5,-7.0,22.6,13.6,-6.5,5.73,2.42,-22.2,28.6
2013-06-10 00:52:00,0.0,1.8888,0.0010,404.71,0.28,355.0,30.2,138.09,29.14,24.66,36.42,0.04,-272.76,-272.76,-40,563,-920,22.3,13.6,-6.9,22.6,13.7,-6.5,5.73,2.30,-22.2,28.6
2013-06-10 00:53:00,0.0,1.8891,0.0008,404.88,0.35,358.9,31.8,138.09,29.15,24.66,36.41,0.04,-272.76,-272.76,-40,563,-920,22.3,13.7,-6.8,22.7,13.8,-6.4,5.73,2.36,-22.2,28.6
2013-06-10 00:54:00,0.0,1.8894,0.0012,404.94,0.33,354.9,29.1,138.09,29.15,24.66,36.41,0.04,-272.76,-272.76,-40,563,-920,22.3,13.8,-6.7,22.7,13.9,-6.3,5.73,2.37,-22.2,28.6
2013-06-10 00:55:00,0.0,1.8889,0.0010,404.90,0.26,353.2,33.6,138.09,29.16,24.66,36.41,0.04,-272.76,-272.76,-40,563,-921,22.3,13.7,-6.8,22.6,13.8,-6.4,5.73,2.30,-22.2,28.6
2013-06-10 00:56:00,0.0,1.8890,0.0008,404.76,0.29,351.7,35.4,138.09,29.16,24.66,36.41,0.04,-272.76,-272.76,-40,563,-921,22.3,13.9,-6.6,22.7,14.1,-6.2,5.73,2.41,-22.2,28.6
2013-06-10 00:57:00,0.0,1.8889,0.0009,404.83,0.29,361.3,31.3,138.09,29.16,24.66,36.42,0.04,-272.76,-272.76,-40,563,-920,22.3,14.2,-6.3,22.7,14.3,-5.9,5.73,2.27,-22.2,28.6
2013-06-10 00:58:00,0.0,1.8888,0.0009,404.87,0.30,352.9,31.1,138.09,29.16,24.66,36.41,0.04,-272.76,-272.76,-40,563,-921,22.3,14.0,-6.5,22.6,14.2,-6.1,5.73,2.41,-22.2,28.7
2013-06-10 00:59:00,0.0,1.8890,0.0008,404.85,0.26,362.9,34.5,138.09,29.16,24.66,36.41,0.04,-272.76,-272.76,-40,563,-921,22.3,14.4,-6.1,22.7,14.5,-5.7,5.73,2.31,-22.2,28.7
2013-06-10 01:00:00,0.0,1.8886,0.0010,404.92,0.28,352.1,31.4,138.09,29.16,24.66,36.41,0.04,-272.76,-272.76,-40,563,-920,22.4,14.1,-6.3,22.7,14.3,-5.9,5.73,2.35,-22.2,28.7
2013-06-10 01:01:00,0.0,1.8890,0.0008,404.98,0.30,357.1,31.9,138.09,29.16,24.66,36.41,0.04,-272.76,-272.76,-40,563,-921,22.3,14.8,-5.7,22.7,14.9,-5.4,5.73,2.38,-22.2,28.7
2013-06-10 01:02:00,0.0,1.8888,0.0010,404.89,0.29,353.5,27.9,138.09,29.17,24.66,36.41,0.04,-272.76,-272.76,-40,563,-920,22.3,15.2,-5.3,22.7,15.5,-4.9,5.73,2.29,-22.2,28.7
2013-06-10 01:03:00,0.0,1.8891,0.0008,404.87,0.32,357.3,32.3,138.09,29.17,24.65,36.41,0.04,-272.76,-272.76,-40,563,-921,22.4,13.7,-6.7,22.7,13.9,-6.3,5.73,2.42,-22.2,28.7
2013-06-10 01:04:00,0.0,1.8892,0.0010,404.78,0.26,345.9,32.3,138.09,29.17,24.66,36.42,0.04,-272.76,-272.76,-40,563,-921,22.4,14.5,-6.0,22.7,14.6,-5.6,5.73,2.27,-22.2,28.7
2013-06-10 01:05:00,0.0,1.8889,0.0010,404.91,0.26,356.3,35.1,138.09,29.18,24.66,36.41,0.04,-272.76,-272.76,-40,563,-921,22.4,14.4,-6.1,22.7,14.5,-5.7,5.73,2.41,-22.2,28.7
2013-06-10 01:06:00,0.0,1.8888,0.0008,404.85,0.28,362.8,30.5,138.09,29.18,24.66,36.41,0.04,-272.76,-272.76,-40,563,-920,22.4,14.3,-6.2,22.7,14.5,-5.7,5.73,2.31,-22.2,28.7
2013-06-10 01:07:00,0.0,1.8889,0.0009,404.93,0.29,354.4,33.7,138.09,29.18,24.66,36.42,0.04,-272.76,-272.76,-40,563,-921,22.4,13.9,-6.6,22.7,14.0,-6.2,5.73,2.35,-22.2,28.7
2013-06-10 01:08:00,0.0,1.8891,0.0007,404.83,0.29,349.3,29.6,138.09,29.18,24.66,36.42,0.04,-272.76,-272.76,-40,563,-921,22.4,14.1,-6.3,22.7,14.3,-5.9,5.73,2.37,-22.2,28.7
2013-06-10 01:09:00,0.0,1.8889,0.0009,404.91,0.28,360.4,32.6,138.09,29.19,24.66,36.41,0.04,-272.76,-272.76,-40,563,-921,22.4,14.0,-6.5,22.7,14.1,-6.0,5.73,2.30,-22.2,28.7
2013-06-10 01:10:00,0.0,1.8890,0.0007,404.96,0.29,360.1,30.4,138.09,29.19,24.66,36.41,0.04,-272.76,-272.76,-40,563,-921,22.4,13.6,-6.8,22.7,13.8,-6.4,5.73,2.42,-22.2,28.7
2013-06-10 01:11:00,0.0,1.8890,0.0009,404.95,0.32,368.0,36.0,138.09,29.19,24.66,36.41,0.04,-272.76,-272.76,-40,563,-921,22.4,14.4,-6.1,22.7,14.5,-5.7,5.73,2.27,-22.2,28.7
2013-06-10 01:12:00,0.0,1.8890,0.0007,404.92,0.24,352.3,34.8,138.09,29.20,24.66,36.42,0.04,-272.76,-272.76,-40,563,-921,22.4,14.5,-6.0,22.7,14.6,-5.6,5.73,2.41,-22.2,28.7
2013-06-10 01:13:00,0.0,1.8891,0.0007,404.96,0.32,352.8,31.3,138.09,29.20,24.66,36.42,0.04,-272.76,-272.76,-40,563,-921,22.4,14.4,-6.1,22.7,14.5,-5.7,5.73,2.31,-22.2,28.7
2013-06-10 01:14:00,0.0,1.8891,0.0008,405.02,0.33,358.8,30.9,138.09,29.20,24.66,36.41,0.04,-272.76,-272.76,-40,563,-921,22.4,15.1,-5.5,22.7,15.2,-5.1,5.73,2.36,-22.2,28.7
2013-06-10 01:15:00,0.0,1.8890,0.0006,404.99,0.30,352.9,29.9,138.09,29.20,24.66,36.41,0.04,-272.76,-272.76,-40,563,-921,22.4,14.4,-6.1,22.7,14.6,-5.6,5.73,2.37,-22.2,28.7
2013-06-10 01:16:00,0.0,1.8892,0.0011,404.99,0.29,357.5,35.3,138.08,29.21,24.66,36.41,0.04,-272.76,-272.76,-40,563,-920,22.4,13.5,-6.9,22.8,13.7,-6.5,5.73,2.30,-22.2,28.7
2013-06-10 01:17:00,0.0,1.8892,0.0010,404.99,0.32,357.8,26.4,138.09,29.21,24.66,36.41,0.04,-272.76,-272.76,-40,563,-921,22.4,13.5,-6.9,22.7,13.6,-6.5,5.73,2.41,-22.2,28.8
2013-06-10 01:18:00,0.0,1.8891,0.0009,405.02,0.25,359.6,34.6,138.08,29.22,24.66,36.41,0.04,-272.76,-272.76,-40,563,-921,22.4,13.8,-6.6,22.8,13.9,-6.2,5.73,2.28,-22.2,28.7
2013-06-10 01:19:00,0.0,1.8893,0.0008,404.92,0.29,354.4,33.4,138.08,29.22,24.66,36.42,0.04,-272.76,-272.77,-40,563,-921,22.4,14.3,-6.1,22.8,14.5,-5.7,5.73,2.42,-22.2,28.7
2013-06-10 01:20:00,0.0,1.8891,0.0009,404.96,0.32,366.1,26.2,138.08,29.22,24.66,36.41,0.04,-272.76,-272.75,-40,563,-921,22.4,14.4,-6.1,22.8,14.5,-5.6,5.73,2.29,-22.2,28.7
2013-06-10 01:21:00,0.0,1.8890,0.0008,404.97,0.29,357.9,27.7,138.08,29.22,24.66,36.41,0.04,-272.76,-272.76,-40,563,-921,22.4,14.4,-6.1,22.8,14.6,-5.6,5.73,2.37,-22.2,28.7
2013-06-10 01:22:00,0.0,1.8890,0.0009,405.05,0.34,357.8,28.2,138.08,29.23,24.66,36.41,0.04,-272.76,-272.76,-40,563,-920,22.4,14.5,-6.0,22.8,14.6,-5.5,5.73,2.35,-22.2,28.7
2013-06-10 01:23:00,0.0,1.8893,0.0009,404.98,0.26,365.3,29.4,138.09,29.23,24.66,36.41,0.04,-272.76,-272.76,-40,563,-921,22.4,13.6,-6.8,22.8,13.8,-6.3,5.73,2.31,-22.2,28.8
2013-06-10 01:24:00,0.0,1.8892,0.0009,404.96,0.29,353.3,25.4,138.08,29.23,24.66,36.41,0.04,-272.76,-272.76,-40,563,-921,22.4,13.7,-6.7,22.8,13.8,-6.3,5.73,2.40,-22.2,28.7
2013-06-10 01:25:00,0.0,1.8894,0.0008,404.95,0.22,362.4,31.1,138.08,29.24,24.66,36.42,0.04,-272.76,-272.76,-40,563,-921,22.4,13.9,-6.5,22.8,14.0,-6.1,5.73,2.28,-22.2,28.8
2013-06-10 01:26:00,0.0,1.8894,0.0009,404.94,0.30,361.0,35.8,138.08,29.24,24.66,36.41,0.04,-272.76,-272.76,-40,563,-921,22.5,14.1,-6.3,22.8,14.3,-5.8,5.73,2.42,-22.2,28.8
2013-06-10 01:27:00,0.0,1.8896,0.0010,404.91,0.31,363.1,30.0,138.09,29.24,24.66,36.42,0.04,-272.75,-272.76,-40,563,-921,22.5,14.5,-5.9,22.8,14.7,-5.5,5.73,2.28,-22.1,28.8
2013-06-10 01:28:00,0.0,1.8893,0.0009,404.96,0.33,361.9,31.6,138.08,29.24,24.66,36.42,0.04,-272.76,-272.76,-40,563,-921,22.4,14.2,-6.2,22.8,14.4,-5.8,5.73,2.40,-22.2,28.7
2013-06-10 01:29:00,0.0,1.8891,0.0010,405.03,0.25,361.6,27.2,138.08,29.25,24.66,36.41,0.04,-272.76,-272.76,-40,563,-921,22.4,13.9,-6.5,22.8,14.0,-6.1,5.73,2.32,-22.2,28.7
2013-06-10 01:30:00,0.0,1.8890,0.0008,404.94,0.27,357.1,31.5,138.08,29.25,24.66,36.42,0.04,-272.76,-272.76,-40,563,-921,22.5,14.2,-6.2,22.8,14.3,-5.8,5.73,2.35,-22.1,28.8
2013-06-10 01:31:00,0.0,1.8890,0.0009,404.90,0.27,365.9,32.6,138.08,29.25,24.66,36.42,0.04,-272.76,-272.76,-40,564,-921,22.5,14.6,-5.8,22.8,14.7,-5.4,5.73,2.37,-22.1,28.8
2013-06-10 01:32:00,0.0,1.8891,0.0009,405.04,0.30,361.9,30.8,138.08,29.26,24.66,36.41,0.04,-272.76,-272.76,-40,563,-921,22.4,14.1,-6.3,22.8,14.2,-5.8,5.73,2.29,-22.1,28.8
2013-06-10 01:33:00,0.0,1.8891,0.0008,404.92,0.29,354.2,29.0,138.08,29.26,24.66,36.42,0.04,-272.76,-272.76,-40,564,-921,22.5,13.5,-6.8,22.8,13.7,-6.4,5.73,2.42,-22.1,28.8
2013-06-10 01:34:00,0.0,1.8894,0.0007,404.95,0.26,365.9,32.4,138.08,29.27,24.66,36.41,0.04,-272.75,-272.75,-40,564,-921,22.5,13.3,-7.0,22.8,13.4,-6.6,5.73,2.27,-22.1,28.8
2013-06-10 01:35:00,0.0,1.8893,0.0009,404.86,0.31,369.3,32.1,138.08,29.27,24.66,36.42,0.04,-272.76,-272.76,-40,564,-921,22.5,13.3,-7.0,22.8,13.4,-6.6,5.73,2.42,-22.1,28.8
2013-06-10 01:36:00,0.0,1.8889,0.0009,404.90,0.31,363.9,29.8,138.08,29.27,24.66,36.42,0.04,-272.76,-272.76,-40,564,-921,22.5,13.6,-6.7,22.9,13.7,-6.3,5.73,2.30,-22.1,28.8
2013-06-10 01:37:00,0.0,1.8890,0.0010,404.89,0.28,369.0,30.6,138.08,29.27,24.66,36.42,0.04,-272.76,-272.76,-40,564,-921,22.5,13.9,-6.4,22.9,14.1,-5.9,5.73,2.36,-22.1,28.8
2013-06-10 01:38:00,0.0,1.8889,0.0007,404.95,0.26,368.2,32.8,138.08,29.27,24.66,36.42,0.04,-272.76,-272.76,-40,564,-921,22.5,13.6,-6.7,22.9,13.8,-6.3,5.73,2.37,-22.1,28.8
2013-06-10 01:39:00,0.0,1.8894,0.0009,405.00,0.31,361.5,31.7,138.08,29.28,24.66,36.41,0.04,-272.76,-272.76,-40,564,-921,22.5,13.7,-6.6,22.9,13.8,-6.2,5.73,2.30,-22.1,28.8
2013-06-10 01:40:00,0.0,1.8893,0.0009,404.99,0.26,361.4,33.5,138.08,29.28,24.66,36.41,0.04,-272.76,-272.76,-40,564,-921,22.5,13.9,-6.5,22.9,14.0,-6.0,5.73,2.42,-22.1,28.8
2013-06-10 01:41:00,0.0,1.8891,0.0009,404.92,0.31,352.8,28.8,138.08,29.28,24.66,36.42,0.04,-272.75,-272.76,-40,564,-921,22.5,14.2,-6.1,22.9,14.4,-5.7,5.73,2.27,-22.1,28.8
2013-06-10 01:42:00,0.0,1.8892,0.0008,404.91,0.24,361.7,32.4,138.08,29.29,24.66,36.42,0.04,-272.76,-272.76,-40,564,-921,22.5,13.4,-6.9,22.9,13.6,-6.3,5.73,2.40,-22.1,28.8
2013-06-10 01:43:00,0.0,1.8890,0.0010,404.94,0.29,359.9,37.9,138.08,29.29,24.66,36.42,0.04,-272.76,-272.76,-40,564,-921,22.5,12.7,-7.6,22.9,12.9,-7.1,5.73,2.32,-22.1,28.8
2013-06-10 01:44:00,0.0,1.8891,0.0009,404.94,0.26,364.1,27.4,138.08,29.29,24.66,36.42,0.04,-272.76,-272.76,-40,564,-921,22.5,12.9,-7.4,22.9,13.0,-7.0,5.73,2.34,-22.1,28.8
2013-06-10 01:45:00,0.0,1.8889,0.0007,404.93,0.29,356.8,33.6,138.08,29.30,24.66,36.42,0.04,-272.75,-272.76,-40,564,-921,22.5,13.0,-7.3,22.9,13.1,-6.9,5.73,2.39,-22.1,28.8
2013-06-10 01:46:00,0.0,1.8891,0.0008,404.97,0.33,363.7,24.5,138.08,29.30,24.66,36.41,0.04,-272.77,-272.76,-40,564,-921,22.5,13.5,-6.8,22.9,13.6,-6.4,5.73,2.28,-22.1,28.8
2013-06-10 01:47:00,0.0,1.8891,0.0009,404.91,0.33,358.2,34.1,138.08,29.31,24.66,36.42,0.04,-272.76,-272.76,-40,564,-921,22.5,13.4,-6.9,22.9,13.5,-6.5,5.73,2.42,-22.1,28.8
2013-06-10 01:48:00,0.0,1.8892,0.0007,404.97,0.28,360.2,27.1,138.08,29.31,24.66,36.42,0.04,-272.76,-272.76,-40,564,-921,22.5,13.5,-6.8,22.9,13.7,-6.3,5.73,2.28,-22.1,28.8
2013-06-10 01:49:00,0.0,1.8895,0.0010,404.88,0.33,357.9,36.3,138.08,29.31,24.66,36.42,0.04,-272.76,-272.76,-40,564,-921,22.5,13.7,-6.6,22.9,13.8,-6.2,5.73,2.40,-22.1,28.8
2013-06-10 01:50:00,0.0,1.8890,0.0011,404.92,0.30,363.4,27.2,138.08,29.32,24.66,36.42,0.04,-272.76,-272.76,-40,564,-921,22.5,13.9,-6.4,22.9,14.0,-6.0,5.73,2.33,-22.1,28.8
2013-06-10 01:51:00,0.0,1.8895,0.0010,404.89,0.31,350.3,32.7,138.08,29.32,24.66,36.42,0.04,-272.76,-272.75,-40,564,-921,22.5,13.5,-6.8,22.9,13.6,-6.4,5.73,2.33,-22.1,28.8
2013-06-10 01:52:00,0.0,1.8892,0.0009,404.96,0.30,366.5,33.2,138.08,29.32,24.66,36.41,0.04,-272.76,-272.76,-40,564,-921,22.5,13.2,-7.1,22.9,13.3,-6.7,5.73,2.39,-22.1,28.8
2013-06-10 01:53:00,0.0,1.8889,0.0008,404.90,0.24,353.6,26.8,138.08,29.33,24.66,36.42,0.04,-272.76,-272.76,-40,564,-921,22.5,13.3,-7.0,22.9,13.4,-6.5,5.73,2.28,-22.1,28.8
2013-06-10 01:54:00,0.0,1.8891,0.0011,405.00,0.27,361.2,34.8,138.08,29.33,24.66,36.41,0.04,-272.76,-272.75,-40,564,-921,22.5,13.0,-7.2,22.9,13.1,-6.8,5.73,2.42,-22.1,28.8
2013-06-10 01:55:00,0.0,1.8894,0.0007,404.97,0.29,359.1,35.1,138.08,29.33,24.66,36.41,0.04,-272.76,-272.76,-40,564,-921,22.5,13.3,-7.0,22.9,13.5,-6.5,5.73,2.28,-22.1,28.8
2013-06-10 01:56:00,0.0,1.8892,0.0009,404.77,0.25,363.2,31.2,138.08,29.34,24.66,36.43,0.04,-272.76,-272.76,-40,564,-921,22.5,13.3,-7.0,22.9,13.4,-6.6,5.73,2.39,-22.1,28.8
2013-06-10 01:57:00,0.0,1.8896,0.0010,404.89,0.30,352.8,31.2,138.08,29.34,24.65,36.42,0.04,-272.76,-272.76,-40,564,-921,22.5,12.8,-7.4,22.9,12.9,-7.0,5.73,2.32,-22.1,28.8
2013-06-10 01:58:00,0.0,1.8889,0.0010,404.91,0.26,363.2,27.5,138.08,29.34,24.66,36.42,0.04,-272.76,-272.76,-40,564,-921,22.5,13.8,-6.5,22.9,13.9,-6.1,5.73,2.34,-22.1,28.8
2013-06-10 01:59:00,0.0,1.8893,0.0010,404.89,0.26,357.3,28.9,138.08,29.35,24.66,36.42,0.04,-272.76,-272.76,-40,564,-921,22.5,13.3,-7.0,22.9,13.5,-6.5,5.73,2.37,-22.1,28.8
2013-06-10 02:00:00,0.0,1.8889,0.0009,404.99,0.26,364.5,30.5,138.08,29.35,24.66,36.41,0.04,-272.76,-272.76,-40,564,-921,22.5,12.5,-7.8,22.9,12.6,-7.4,5.73,2.30,-22.1,28.8
2013-06-10 02:01:00,0.0,1.8889,0.0010,404.84,0.29,363.1,34.7,138.08,29.35,24.66,36.42,0.04,-272.76,-272.76,-40,564,-921,22.5,13.4,-6.9,22.9,13.6,-6.4,5.73,2.41,-22.1,28.8
2013-06-10 02:02:00,0.0,1.8888,0.0008,404.95,0.28,363.6,31.5,138.08,29.36,24.66,36.42,0.04,-272.76,-272.76,-40,564,-921,22.5,13.2,-7.1,22.9,13.3,-6.6,5.73,2.28,-22.1,28.9
2013-06-10 02:03:00,0.0,1.8893,0.0008,405.05,0.28,360.5,32.0,138.08,29.36,24.66,36.41,0.04,-272.76,-272.76,-40,564,-921,22.5,13.5,-6.8,22.9,13.6,-6.4,5.73,2.41,-22.1,28.9
2013-06-10 02:04:00,0.0,1.8893,0.0009,404.92,0.28,355.5,31.3,138.08,29.37,24.66,36.42,0.04,-272.76,-272.76,-40,564,-921,22.6,13.4,-6.9,22.9,13.4,-6.5,5.73,2.29,-22.1,28.9
2013-06-10 02:05:00,0.0,1.8890,0.0009,404.92,0.29,353.1,30.3,138.08,29.37,24.66,36.41,0.04,-272.76,-272.76,-40,564,-921,22.6,13.8,-6.4,22.9,14.0,-6.0,5.73,2.38,-22.1,28.8
2013-06-10 02:06:00,0.0,1.8891,0.0010,404.93,0.29,365.4,32.4,138.08,29.37,24.66,36.42,0.04,-272.76,-272.76,-40,564,-921,22.6,12.8,-7.5,22.9,12.9,-7.0,5.73,2.34,-22.1,28.8
2013-06-10 02:07:00,0.0,1.8892,0.0010,404.95,0.30,364.4,31.6,138.08,29.38,24.66,36.42,0.04,-272.76,-272.76,-41,564,-921,22.6,13.2,-7.0,22.9,13.3,-6.6,5.73,2.32,-22.1,28.8
2013-06-10 02:08:00,0.0,1.8890,0.0008,404.98,0.27,355.4,29.3,138.08,29.38,24.66,36.42,0.04,-272.76,-272.76,-40,564,-921,22.5,12.8,-7.5,22.9,12.9,-7.1,5.73,2.39,-22.1,28.8
2013-06-10 02:09:00,0.0,1.8892,0.0008,404.94,0.28,359.0,32.7,138.08,29.38,24.66,36.41,0.04,-272.76,-272.76,-40,564,-921,22.6,14.0,-6.3,22.9,14.1,-6.0,5.73,2.28,-22.1,28.8
2013-06-10 02:10:00,0.0,1.8891,0.0009,404.94,0.29,371.1,35.2,138.08,29.38,24.66,36.42,0.04,-272.76,-272.76,-40,564,-921,22.6,12.9,-7.3,22.9,13.0,-6.9,5.73,2.42,-22.1,28.9
2013-06-10 02:11:00,0.0,1.8892,0.0008,404.92,0.28,363.7,34.0,138.08,29.39,24.66,36.42,0.04,-272.76,-272.76,-40,564,-921,22.6,13.9,-6.4,23.0,14.0,-6.0,5.73,2.28,-22.1,28.8
2013-06-10 02:12:00,0.0,1.8890,0.0009,404.89,0.29,363.0,25.4,138.08,29.39,24.66,36.42,0.04,-272.76,-272.76,-40,564,-921,22.6,14.2,-6.1,23.0,14.3,-5.7,5.73,2.39,-22.1,28.8
2013-06-10 02:13:00,0.0,1.8890,0.0008,404.94,0.28,364.5,34.8,138.08,29.39,24.66,36.41,0.04,-272.76,-272.76,-40,564,-921,22.6,14.0,-6.3,23.0,14.2,-5.8,5.73,2.33,-22.1,28.9
2013-06-10 02:14:00,0.0,1.8891,0.0009,404.97,0.27,364.7,31.2,138.08,29.39,24.66,36.41,0.04,-272.76,-272.76,-40,564,-921,22.6,13.9,-6.4,23.0,14.0,-5.9,5.73,2.34,-22.0,28.9
2013-06-10 02:15:00,0.0,1.8895,0.0009,404.98,0.27,361.7,33.9,138.08,29.40,24.66,36.41,0.04,-272.76,-272.76,-40,564,-921,22.6,13.8,-6.5,23.0,14.0,-6.0,5.73,2.38,-21.8,28.9
2013-06-10 02:16:00,0.0,1.8890,0.0009,404.95,0.31,365.6,31.1,138.08,29.40,24.66,36.41,0.04,-272.76,-272.76,-40,564,-921,22.6,12.8,-7.5,23.0,12.9,-7.0,5.73,2.29,-21.7,28.9